Location: Laura�t
(43.9341°N, 0.2497°E)
Time: 22:45:53
(UTC+00:00)

ATLAS CENTAUR R/B - Pass Details

Date: 03 March 2021
Orbit: 475 x 670 km, 64.7° (Epoch: 30 March)

Event Time Altitude Azimuth Distance (km) Brightness Sun altitude
Rises 19:55:59 0° 240° (WSW) 2,520 5.4 -23.3°
Reaches altitude 10° 19:58:19 10° 253° (WSW) 1,641 4.5 -23.7°
Maximum altitude 20:01:30 28° 314° (NW) 931 3.0 -24.3°
Enters shadow 20:03:16 19° 358° (N) 1,202 3.2 -24.6°
